Location: ??????
(55.0357°N, 38.6195°E)
Time: 07:20:14
(UTC+00:00)

Meteor 1-28 Rocket - Visible Passes

Search period start: 13 July 2024 00:00
Search period end: 23 July 2024 00:00
Orbit: 474 x 487 km, 97.5° (Epoch: 12 July)

Date Brightness Start Highest point End Pass type
(mag) Time Alt. Az. Time Alt. Az. Time Alt. Az.
13 Jul 5.4 22:50:11 10° ESE 22:53:03 23° ENE 22:55:57 10° N visible
14 Jul 5.9 22:25:39 10° E 22:27:40 14° ENE 22:29:42 10° NNE visible
14 Jul 3.0 23:56:56 10° SSE 00:00:32 79° WSW 00:04:10 10° NNW visible
15 Jul 3.8 23:31:23 10° SSE 23:34:55 55° ENE 23:38:28 10° N visible
16 Jul 4.9 23:06:10 10° SE 23:09:22 31° ENE 23:12:36 10° N visible
17 Jul 5.7 22:41:16 10° ESE 22:43:53 19° ENE 22:46:31 10° NNE visible
18 Jul 3.3 00:13:25 10° S 00:16:56 53° W 00:20:30 10° NNW visible
18 Jul 6.1 22:16:59 10° E 22:18:29 12° NE 22:19:58 10° NNE visible
18 Jul 3.2 23:47:38 10° SSE 23:51:13 82° ENE 23:54:52 10° NNW visible
19 Jul 4.2 23:22:08 10° SE 23:25:35 44° ENE 23:29:03 10° N visible
20 Jul 5.2 22:56:58 10° ESE 23:00:00 26° ENE 23:03:03 10° N visible
21 Jul 5.9 22:32:12 10° E 22:34:30 16° ENE 22:36:47 10° NNE visible
22 Jul 3.1 00:03:50 10° S 00:07:25 68° WSW 00:11:03 10° NNW visible
22 Jul 6.4 22:08:36 10° ENE 22:09:03 10° NE 22:09:29 10° NE visible
22 Jul 3.5 23:38:07 10° SSE 23:41:41 64° ENE 23:45:17 10° N visible
